INTELSAT 33E DEB, 61993

Orbit data source: Space-Track

INTELSAT 33E DEB, 61993 is space debris in GEO originally from a launch on Wed, 24 Aug 2016 UTC launched from the French Guiana (FRGUI). Debris objects in space refer to the collection of defunct objects orbiting the Earth. Examples of debris include non-operational satellites, rocket bodies, and fragments generated from explosions, collisions, or faulty payload assembly.

Not visible in the next 10 days
Identifier
61993, 2016-053K
Orbit
GEO
Country
Flag of UnknownUnknown / ITSO
Related business
Manufacturer
Boeing/ES
Mission
Spacecraft
Bus & Motor
Unknown
Mass
Unknown
Launch date (UTC)
2016-08-24 (9 years ago)
Launch vehicle
Unknown
Launch site
French Guiana (FRGUI)
Object type
Payload
Rocket body
Debris
Shape & HBR
Unknown shape, 1.1 m
Radar Cross Section
RCS unknown

Expand to show TLE details & history
Last TLE update: 1 day ago

TLE from 1 day ago
0 INTELSAT 33E DEB
1 61993U 16053K   25351.84559893  .00000036  00000-0  00000-0 0  9999
2 61993   1.0144  74.4456 0085731 307.8725  49.9101  1.01203331  4301
Epoch: 2025-12-17T20:17Z
TLE epoch observation values (Epoch: 2025-12-17T20:17:39.747Z)
Latitude
-0.00001°
Longitude
41.84407°
Altitude
35,296.604 km
Speed
3.101 km/s
True Right ascension
04h 51m 52s
True Declination
0° 00' 00"
Sunlit
Object was in daylight at epoch
Visualization orbit readout
Latitude
Unknown
Longitude
Unknown
Altitude
Unknown
Speed
Unknown
Apparent Right ascension
Unknown
Apparent Declination
Unknown
Sunlit
N/A
Visualization observer readout
Local Sidereal Time
00:43:15
Azimuth
Unknown
Elevation
Unknown
Doppler factor
Unknown
Orbital elements
Apogee altitude
35,887.8 km
Perigee altitude
35,169.26 km
Semi-major axis
41,906.667 km
Eccentricity
0.00857
Inclination
1.0144°
RAAN
74.4456°
Arg. of periapsis
307.8725°
True anomaly
50.66687°
Mean anomaly
49.9101°
Eccentric anomaly
50.28797°
Mean motion
0.253 °/min
Orbital period
1,422.93 mins
BSTAR
0
Loading maneuver chart data...
Computing Atmospheric mass density...
Loading historical data...
Loading historical data...
Loading historical data...
Loading historical data...
Loading historical data...
Loading historical data...
Loading historical data...

Documentation

Showing up to 5 results
|